Cloud_Cover
100 100 100 100 100 100 92 60 100 100 30 30 20 5 5 0 1 0 5 15 5 40 21 17 68 8 10 39 47 8 100 100 100 100 5 5 0 0 0 0 0 0 0 0 2
100 100 100 100 100 100 100 100 100 100 100 100 31 5 5 6 0 0 5 5 44 86 31 77 56 94 5 64 9 5 100 100 33 5 5 5 29 0 0 0 0 0 0 0 0
100 100 100 100 100 100 100 100 100 100 100 98 31 9 5 48 2 0 0 5 5 5 7 61 43 5 46 5 5 1 100 5 5 5 0 0 4 0 0 0 0 0 0 0 0
100 100 100 100 100 100 100 100 100 100 98 60 45 4 4 5 12 0 0 5 5 5 19 34 100 19 24 4 0 59 0 0 5 5 0 0 0 0 0 0 0 0 0 3 5
100 100 100 100 100 100 100 100 100 100 88 76 15 0 10 24 16 2 0 5 15 58 59 100 100 84 16 6 5 0 0 0 0 0 0 0 0 0 0 0 0 4 1 3 0
100 100 100 100 100 100 100 100 100 98 99 27 10 36 13 22 83 21 1 4 5 18 84 71 70 50 30 39 42 1 0 0 3 2 0 0 0 0 0 4 6 56 25 5 0
39 100 100 100 100 100 100 100 41 10 2 3 5 7 95 95 46 5 75 7 26 85 98 96 35 58 71 11 12 5 1 0 0 5 5 5 3 5 2 6 28 55 100 36 5
15 100 100 100 100 100 99 20 20 2 0 0 6 0 5 7 82 36 99 100 100 97 100 98 84 5 8 5 5 36 44 25 2 5 5 8 78 1 1 9 74 1 5 58 70
61 100 100 100 100 100 9 0 0 0 0 0 4 0 0 5 5 100 89 100 100 100 100 100 79 23 5 5 17 7 83 11 4 5 5 41 75 26 5 3 0 2 5 5 49
47 100 100 100 100 68 1 11 9 18 0 0 0 0 0 0 17 38 99 100 100 100 100 55 54 92 30 16 88 99 57 31 33 39 5 6 30 37 84 5 2 5 39 4 50
73 100 100 100 100 26 13 0 2 0 0 0 0 0 0 0 5 66 7 100 100 100 100 100 100 100 66 100 34 52 84 98 68 94 95 60 19 61 5 5 5 29 93 7 5
100 100 100 100 83 0 81 1 4 0 0 0 0 0 0 3 0 5 5 64 100 100 100 100 100 30 96 67 89 66 72 97 72 45 52 98 100 98 53 30 5 5 4 4 5
100 100 100 100 1 33 0 0 28 19 0 0 0 1 2 0 5 5 1 5 5 52 100 100 100 100 100 100 98 100 100 100 100 91 100 98 99 85 93 100 98 75 16 7 5
100 100 100 35 53 0 0 0 0 1 0 1 2 4 5 5 2 5 36 5 5 73 6 84 96 100 100 100 99 100 78 100 100 100 100 100 100 100 100 84 79 78 98 93 41
100 100 100 84 0 0 0 0 0 0 0 0 0 0 0 0 0 0 5 5 54 16 43 78 22 22 43 98 100 100 100 100 98 100 99 95 98 100 100 100 100 100 90 87 75
100 100 84 29 0 0 0 0 0 0 0 0 0 0 0 0 0 0 0 2 11 70 48 84 38 9 28 6 5 4 42 93 100 100 45 94 98 100 100 100 100 100 100 100 100
100 100 31 0 0 0 0 0 0 0 0 0 0 0 0 0 0 0 0 0 0 8 40 51 28 89 30 5 5 14 3 86 86 62 95 78 100 99 100 100 100 100 100 100 100
32 29 2 0 0 0 0 0 0 0 0 0 0 0 0 0 0 0 0 0 0 51 58 75 85 99 15 6 82 11 76 95 99 100 100 3 1 10 90 100 96 100 100 100 100
37 0 0 0 0 0 0 0 0 0 0 0 0 0 0 0 0 0 0 0 3 2 4 5 0 64 4 4 4 5 0 10 96 97 37 6 8 5 0 0 43 100 40 9 80
0 0 0 0 0 0 0 0 0 0 0 0 0 0 0 0 0 0 0 0 0 0 0 0 0 0 0 0 0 0 3 4 41 41 62 100 88 15 1 1 0 0 11 76 97
0 0 0 0 0 0 0 0 0 0 0 0 0 0 0 0 0 0 0 0 0 0 0 0 0 0 0 0 0 0 0 0 0 0 6 3 21 96 52 0 0 0 80 97 88
0 0 0 0 0 0 0 0 0 0 0 0 0 0 0 0 0 0 0 0 0 0 0 0 0 0 0 0 0 0 0 0 0 0 2 0 1 0 0 0 0 39 100 100 100
0 0 0 0 0 0 0 0 0 0 0 0 0 0 0 3 5 5 27 31 6 8 1 0 0 3 18 4 3 0 0 0 0 0 0 0 27 0 0 0 11 98 100 100 100
0 0 0 0 0 0 0 0 0 0 0 0 0 0 3 5 20 5 41 39 100 100 91 54 56 5 92 100 12 5 19 19 17 5 4 24 87 0 1 0 95 90 100 100 100
0 0 0 0 0 0 0 0 0 0 0 0 0 0 1 10 83 80 52 33 88 83 80 68 38 42 92 100 100 99 95 92 100 100 54 93 5 2 5 4 82 63 100 16 19
0 0 0 0 0 0 0 0 0 0 0 0 0 0 0 3 5 84 75 43 5 2 5 15 62 75 98 100 100 100 99 93 98 100 100 100 82 4 1 43 74 100 100 86 64
0 0 0 0 0 0 0 0 0 0 0 0 0 0 2 5 5 5 57 73 67 95 98 85 74 7 6 36 83 73 96 100 100 100 88 14 19 94 100 100 98 52 79 40 28